Tracking 28790 objects as of 18-Apr-2024
HD Live streaming from Space Station
objects crossing your sky now

ARIANE 5 R/B

Track ARIANE 5 R/B now!


NORAD ID: 35944
Int'l Code: 2009-054C
Perigee: 234.5 km
Apogee: 30,357.9 km
Inclination: 3.4 °
Period: 529.0 minutes
Semi major axis: 21667 km
RCS: 22.8192 m2 (large)
Launch date: September 30, 2009
Source: France (FR)
Launch site: FRENCH GUIANA (FRGUI)

Note: This is a ROCKET BODY
Your satellite tracking list
Your tracking list is empty




NASA's NSSDC Master Catalog

Two Line Element Set (TLE):
1 35944U 09054C   24108.56446678  .00009637  00000-0  12598-2 0  9996
2 35944   3.3713 231.4407 6951391  14.9258 357.9337  2.72207352131550
Source of the keplerian elements: AFSPC